Погода в Ижевске

Хотите узнать прогноз погоды в Ижевске? Тогда Вам сюда: Погода в Ижевске

Поиск расширенной информации на нашем сайте:

Полезная информация:

Новости сайта



02.01.2020
Опубликован Долгосрочный прогноз погоды по городам России и ближнего зарубежья на январь 2020 года.
Карты: Прогноз на январь и февраль 2020 года, Сравнение прогнозируемой аномалии приземной температуры воздуха на январь 2020 года по разным моделям.




Погода в Ижевске - сегодня

Время (UTC), дата Ветер
(°,м/с) 
Видим.   Явления Облачность Т
(°С)
Тd
(°С)
f(%) Тe
(°С)
Pmin
(гПа)
dP
(гПа)
Po
(мм)
O2
(г/м3)
Тmin Tmax R s Состояние
почвы
15 27.03.20 290 (З) 3-5{08}  10 км    ясно 
+6.6 -3.1 50 +6  1027.9  -0.5  756  298    +9       
18 27.03.20 тихо () -3{05}  10 км    ясно 
+2.5 -3.4 65 +3  1028.7  0.5  756  302           
21 27.03.20 тихо () -2{03}  10 км    ясно 
+0.4 -4.7 69 1028.9  756  305           
00 28.03.20 тихо () -2{03}  10 км    6/0 верхняя 
[Ci fib]
-0.8 -4.6 75 -1  1028.4  -0.5  756  306           
03 28.03.20 тихо () -2{04}  10 км    9/0 средняя 
[Ac trans]
+2 -1.7 76 +2  1027.3  -0.8  755  302  -1      21  мокрый или
старый снег
50-90% 
06 28.03.20 190 (Ю) 2-3{04}  10 км    9/0 средняя 
[Ac trans]
+2.4 -1.9 73 +2  1027.2  -0.1  755  302           
09 28.03.20 270 (З) 6-7{08}  10 км    10/0 средняя, верхняя 
[Ac trans|Ci fib]
+8.9 -1.2 49 +7  1025.5  -1.2  754  294           
12 28.03.20 270 (З) 4-5{07}  10 км    10/0 средняя, верхняя 
[Ac trans|Ci fib]
+9.4 -1.4 47 +8  1024.5  -1  754  294           
15 28.03.20 210 (ЮЗ) 3-4{07}  10 км    10/0 средняя, верхняя 
[Ac trans|Ci fib]
+7.7 +1 63 +7  1023.1  -1.5  752  295    +9.6       
18 28.03.20 тихо () -2{04}  10 км    8/0 верхняя 
[Ci fib]
+4.4 -1.3 66 +4  1022.8  -0.5  752  298           
21 28.03.20 210 (ЮЗ) 3-4{05}  10 км    10/0 верхняя 
[Ci fib]
+3.2 -1.5 71 +2  1022.4  -0.4  752  300           
00 29.03.20 220 (ЮЗ) 4-5{05}  10 км    10/0 верхняя 
[Ci fib]
+2 -1.7 76 1021.6  -0.9  751  301           
03 29.03.20 210 (ЮЗ) 4-5{06}  10 км    10/0 средняя, верхняя 
[Ac trans|Ci fib]
+2.5 +0.1 84 1020.5  -1.1  750  300  +1.7      19  мокрый или
старый снег
50-90% 
06 29.03.20 200 (Ю) 4-6{07}  10 км    9/0 средняя, верхняя 
[Ac trans|Ci fib]
+6.2 +0 64 +5  1019  -1.2  749  295           
09 29.03.20 180 (Ю) 4-6{09}  10 км    10/0 средняя, верхняя 
[Ac trans|Ci fib]
+7.9 +1 62 +7  1017.8  -1.1  749  293           
12 29.03.20 200 (Ю) 4-7{10}  10 км    10/0 верхняя 
[Ci]
+9.7 +0.3 52 +9  1015.8  -1.8  747  291           
15 29.03.20 170 (Ю) 3-5{08}  10 км    10/0 средняя, верхняя 
[Ac trans|Ci]
+7.1 +0.2 61 +6  1014.2  -1.7  746  293    +10.8       
18 29.03.20 190 (Ю) 3-5{07}  10 км    9/0 средняя, верхняя 
[Ac trans|Ci fib]
+6.3 +0.7 67 +5  1013.9  -0.4  746  294           
21 29.03.20 180 (Ю) 3-5{07}  10 км    8/0 средняя, верхняя 
[Ac trans|Ci fib]
+4.2 -0.6 71 +3  1013.4  -0.7  745  296           
00 30.03.20 200 (Ю) 2-4{05}  10 км    8/0 средняя 
[Ac trans]
+4.4 -0.7 69 +4  1012.5  -0.8  745  295           
03 30.03.20 200 (Ю) 2-4{06}  10 км    10/0 средняя, верхняя 
[Ac trans|Ci]
+4.6 +0.4 74 +4  1011.6  -0.8  744  295  +4      16  мокрый или
старый снег
50-90% 
06 30.03.20 190 (Ю) 4-5{06}  10 км    10/0 средняя, верхняя 
[Ac trans|Ci fib]
+9.2 -2.1 45 +8  1011.4  0.1  744  290           
09 30.03.20 200 (Ю) 4-5{08}  10 км    10/0 средняя, верхняя 
[Ac trans|Ci fib]
+11.3 -1 42 +11  1011  -0.3  744  288           
12 30.03.20 210 (ЮЗ) 7-9{11}  10 км    10/0 средняя, верхняя 
[Ac trans|Ci]
+14 -1.1 35 +13  1010.6  -0.2  744  285           
15 30.03.20 180 (Ю) 3-4{09}  10 км    10/0 средняя, верхняя 
[Ac trans|Ci fib]
+10.5 -1.9 42 +10  1010.5  -0.4  743  289    +14.1       
Время (UTC), дата Ветер
(°,м/с) 
Видим.   Явления Облачность Т
(°С)
Тd
(°С)
f(%) Тe
(°С)
Pmin
(гПа)
dP
(гПа)
Po
(мм)
O2
(г/м3)
Тmin Tmax R s Состояние
почвы

Для получения пояснительной информации подведите курсор к названию столбца.

ПОГОДА в Ижевске - архив

Всё, что Вы хотите узнать о погоде в Ижевске - удобно и подробно!

Выберите нужную дату (начиная с 1 января 2019* года) и нажмите кнопку "Найти".
Будут отображены архивные сводки погоды по пункту Ижевск, начиная с указанной даты.


Отображать данные в формате CSV (для использования в таблицах Excel)


Внимание! Наш архив погоды предназначен исключительно для личного некоммерческого использования в познавательных целях. Если Вам необходимы официальные справки о состоянии погоды (для производственных, юридических, коммерческих и т.п. целей), обращайтесь в органы Росгидромета.

*Примечание: данная дата относится к архиву по метеостанциям СССР (Россия, СНГ, Балтия).
Архив по метеостанциям Зарубежной Европы и Азии (кроме Китая) хранится 10 дней, по другим регионам земного шара (Китай, Африка, Америка, Австралия, Океания) - 1 день.

Ижевск - район местоположения метеостанции


Название, широта, долгота, высота метеостанции:
Ижевск 56.8°ш. 53.4°д. 159 м над ур. моря [Российская Федерация]

Дополнительная информация

В oтличие oт бoльшинства пoгoдных сайтoв мы публикуем пoдрoбную метеoинфoрмацию в детальнoм прoфессиoнальнoм фoрмате.

Характеристики температуры и влажнoсти вoздуха измеряются на высoте 2 м в тени вдали oт зданий и деревьев.
Скoрoсть ветра измеряется на высoте 10 м (на урoвне рoста челoвека скoрoсть ветра ниже в 1.5-2 раза). Если метеoстанция нахoдится в гoрoде или в лесу, тo скoрoсть ветра занижена на 2-4 м/с пo сравнению с oткрытым местoм. Скoрoсть ветра над акватoриями крупных рек и oзёр, а также на вершинах хoлмoв на 2-5 м/с выше, чем в oбычных услoвиях.
Атмoсфернoе давление в разных тoчках местнoсти мoжет значительнo oтличаться oт давления на метеoстанции, в зависимoсти oт услoвий рельефа (при пoдъёме на 10 м давление пoнижается примернo на 1 мм рт.ст.).